Jackson, KY

8:21 PM EST on November 17, 2019 (GMT -0500)
Carroll

Weather History for KJKL - September, 2019

Change the Weather History Date:

Monday, September 16, 2019

  Actual Average Record
Temperature  
Mean Temperature 79 °F 68 °F  
Max Temperature 94 °F 78 °F 94 °F (2019)
Min Temperature 63 °F 58 °F 45 °F (1984)
Degree Days  
Heating Degree Days 0 1  
Month to date heating degree days 0 8  
Since 1 July heating degree days 0 10  
Cooling Degree Days 14 4  
Month to date cooling degree days 200 99  
Year to date cooling degree days 1337 1077  
Growing Degree Days 27 (Base 50)    
Moisture  
Dew Point 59 °F    
Average Humidity 57    
Maximum Humidity 78    
Minimum Humidity 36    
Precipitation  
Precipitation 0.00 in 0.12 in 1.69 in (1996)
Month to date precipitation 0.00 1.80  
Year to date precipitation 39.46 35.35  
Snow  
Snow 0.00 in 0.00 in - ()
Month to date snowfall 0.0 0.0  
Since 1 July snowfall 0.0 0.0  
Since 1 September snowfall 0.0 0.0  
Snow Depth 0.00 in    
Sea Level Pressure  
Sea Level Pressure 30.04 in    
Wind  
Wind Speed 2 mph (South)    
Max Wind Speed 8 mph    
Max Gust Speed 14 mph    
Visibility 10 miles    
Events      
T = Trace of Precipitation, MM = Missing Value Source: NWS Daily Summary

Daily Weather History Graph

Daily Weather History Graph

Search for Another Location

Airport or City:

Astronomy

Sep. 16, 2019 Rise Set
Actual Time 7:15 AM EDT 7:39 PM EDT
Civil Twilight 6:49 AM EDT 8:06 PM EDT
Nautical Twilight 6:18 AM EDT 8:36 PM EDT
Astronomical Twilight 5:47 AM EDT 9:08 PM EDT
Moon 9:16 PM EDT (9/16) 9:20 AM EDT (9/16)
Length of Visible Light 13h 16m
Length of Day
12h 24m
Waning Gibbous, 94% of the Moon is Illuminated
Sep 16
Waning Gibbous
Sep 21
Last Quarter
Sep 28
New
Oct 5
First Quarter
Oct 13
Full

Hourly Weather History & Observations

Time (EDT) Temp. Heat Index Dew Point Humidity Pressure Visibility Wind Dir Wind Speed Gust Speed Precip Events Conditions
12:53 AM 73.9 °F - 51.1 °F 45% 30.08 in 10.0 mi ESE 3.5 mph - N/A   Clear
2:53 AM 70.0 °F - 50.0 °F 49% 30.07 in 10.0 mi South 3.5 mph - N/A   Mostly Cloudy
3:53 AM 66.9 °F - 52.0 °F 59% 30.06 in 10.0 mi Calm Calm - N/A   Partly Cloudy
4:53 AM 66.9 °F - 52.0 °F 59% 30.07 in 10.0 mi Calm Calm - N/A   Mostly Cloudy
5:53 AM 66.0 °F - 53.1 °F 63% 30.07 in 10.0 mi Calm Calm - N/A   Mostly Cloudy
6:53 AM 64.0 °F - 54.0 °F 70% 30.09 in 10.0 mi Calm Calm - N/A   Clear
7:53 AM 63.0 °F - 55.0 °F 75% 30.10 in 10.0 mi Calm Calm - N/A   Clear
8:53 AM 68.0 °F - 55.0 °F 63% 30.11 in 10.0 mi Calm Calm - N/A   Clear
9:53 AM 73.0 °F - 55.9 °F 55% 30.12 in 10.0 mi Calm Calm - N/A   Clear
12:53 PM 88.0 °F 87.9 °F 61.0 °F 40% 30.08 in 10.0 mi Variable 3.5 mph - N/A   Clear
1:53 PM 91.0 °F 90.5 °F 60.1 °F 35% 30.05 in 10.0 mi Variable 6.9 mph - N/A   Partly Cloudy
2:53 PM 91.0 °F 91.5 °F 62.1 °F 38% 30.03 in 10.0 mi WNW 6.9 mph - N/A   Overcast
3:53 PM 91.9 °F 92.9 °F 63.0 °F 38% 30.00 in 10.0 mi North - - N/A   Partly Cloudy
4:53 PM 91.0 °F 91.9 °F 63.0 °F 39% 29.98 in 10.0 mi Variable 3.5 mph - N/A   Scattered Clouds
6:53 PM 86.0 °F 87.6 °F 64.9 °F 49% 29.99 in 10.0 mi Variable 4.6 mph - N/A   Mostly Cloudy
7:53 PM 82.9 °F 85.0 °F 66.0 °F 56% 29.99 in 10.0 mi Calm Calm - N/A   Partly Cloudy
8:53 PM 82.0 °F 84.5 °F 66.9 °F 60% 29.99 in 10.0 mi Calm Calm - N/A   Mostly Cloudy
9:53 PM 80.1 °F 82.3 °F 66.9 °F 64% 30.00 in 10.0 mi Calm Calm - N/A   Partly Cloudy
10:53 PM 78.1 °F - 66.9 °F 68% 30.01 in 10.0 mi Calm Calm - N/A   Partly Cloudy
11:53 PM 77.0 °F - 66.0 °F 69% 30.00 in 10.0 mi Calm Calm - N/A   Clear